Location: Munkebjergskolens Observatorium
(55.3864°N, 10.3987°E)
Time: 22:35:57
(UTC+01:00)

DELTA 1 DEB - Pass Details

Date: 07 December 2023
Orbit: 783 x 826 km, 98.9° (Epoch: 04 March)

Event Time Altitude Azimuth Distance (km) Brightness Sun altitude
Rises 06:23:55 0° 20° (NNE) 3,372 ? -16.5°
Reaches altitude 10° 06:26:29 10° 30° (NNE) 2,439 ? -16.1°
Maximum altitude 06:31:25 35° 96° (E) 1,311 ? -15.4°
Drops below altitude 10° 06:36:20 10° 161° (SSE) 2,429 ? -14.8°
Sets 06:38:52 0° 170° (S) 3,356 ? -14.4°
